sat.trackr.live / text

‹ back to catalog

IRIDIUM 172

NORAD 43927 · 2019-002F

PAYLOAD ACTIVE UNKNOWN

§ Identity

Operator
Country
US
Launch date
2019-01-11
Launch site
AFWTR
Launch vehicle
Mass (kg)
RCS (m²)

Purposes: comms

External: N2YO · Heavens-Above · Gunter

§ Orbital elements

Epoch: 2026-09-19T20:32:58.874208Z

Period
100.40 min
Inclination
86.3971°
Eccentricity
0.0002278
Mean motion
14.34218799 rev/d
Perigee alt
776.0 km
Apogee alt
779.3 km
Semi-major
7,155.8 km
B*
3.8471e-5
RAAN
314.0194°
Arg perigee
94.6675°
Mean anomaly
265.4781°
Rev number
40,253

§ Raw data

IRIDIUM 1721 43927U 19002F   26262.85623697  .00000128  00000+0  38471-4 0  99982 43927  86.3971 314.0194 0002278  94.6675 265.4781 14.34218799402534

JSON: /api/v1/satellites/43927 · /tle

For live sub-satellite position, see the globe view (requires WebGL).

§ Visibility from observer

Set your observer location to see the next 7 days of passes ≥ 10°. The values pass through the URL so the page stays shareable.

No JS? Fill the form by hand. The geolocation button needs JavaScript.